,,,PA_Meas_PMT16A,,PR_Meas_QMR101_102,,RH_Meas_QMH101,,SR_Meas_QMS101,,TA_Meas_QMH101,,GenWind,,GenWind,
date,time,status,PA,status,PR,status,RH,status,SR,status,TA,status,DirAvg,status,SpdAvg,
2010-09-29, 00:00:04,VALID,999.169,VALID,0,VALID,91.7385,VALID,0,VALID,23.0964,VALID,118,VALID,0.270312,
2010-09-29, 00:01:04,VALID,999.126,VALID,0,VALID,91.8835,VALID,0,VALID,23.1159,VALID,118,VALID,0,
2010-09-29, 00:02:04,VALID,999.116,VALID,0,VALID,91.9827,VALID,0,VALID,23.1354,VALID,118,VALID,0,
2010-09-29, 00:03:04,VALID,999.118,VALID,0,VALID,91.9827,VALID,0,VALID,23.1159,VALID,118,VALID,0,
2010-09-29, 00:04:04,VALID,999.134,VALID,0,VALID,91.9751,VALID,0,VALID,23.0964,VALID,118,VALID,0.0277344,
2010-09-29, 00:05:04,VALID,999.11,VALID,0,VALID,91.998,VALID,0,VALID,23.0964,VALID,118,VALID,0.135156,
2010-09-29, 00:06:04,VALID,999.12,VALID,0,VALID,92.0285,VALID,0,VALID,23.1159,VALID,118,VALID,0.189063,
2010-09-29, 00:07:04,VALID,999.1,VALID,0,VALID,92.12,VALID,0,VALID,23.1354,VALID,118,VALID,0.157422,
2010-09-29, 00:08:04,VALID,999.067,VALID,0,VALID,92.1658,VALID,0,VALID,23.1549,VALID,118,VALID,0.335156,
2010-09-29, 00:09:04,VALID,999.055,VALID,0,VALID,92.2345,VALID,0,VALID,23.1939,VALID,118,VALID,0.221094,
2010-09-29, 00:10:04,VALID,999.047,VALID,0,VALID,92.2345,VALID,0,VALID,23.2329,VALID,118,VALID,0,
2010-09-29, 00:11:04,VALID,999.053,VALID,0,VALID,92.2116,VALID,0,VALID,23.2329,VALID,117,VALID,0.715625,
2010-09-29, 00:12:04,VALID,999.058,VALID,0,VALID,92.059,VALID,0,VALID,23.2134,VALID,102,VALID,2.08047,
2010-09-29, 00:13:04,VALID,999.086,VALID,0,VALID,91.6394,VALID,0,VALID,23.2152,VALID,98,VALID,2.07227,
2010-09-29, 00:14:04,VALID,999.085,VALID,0,VALID,91.5097,VALID,0,VALID,23.1762,VALID,85,VALID,1.48242,
2010-09-29, 00:15:04,VALID,999.125,VALID,0,VALID,91.4105,VALID,0,VALID,23.0964,VALID,75,VALID,1.19922,
2010-09-29, 00:16:04,VALID,999.112,VALID,0,VALID,91.4257,VALID,0,VALID,23.0786,VALID,80,VALID,1.19258,
2010-09-29, 00:17:04,VALID,999.12,VALID,0,VALID,91.5326,VALID,0,VALID,23.0183,VALID,79,VALID,1.01992,
2010-09-29, 00:18:04,VALID,999.119,VALID,0,VALID,91.6699,VALID,0,VALID,22.9988,VALID,79,VALID,0.740625,
2010-09-29, 00:19:04,VALID,999.128,VALID,0,VALID,91.7462,VALID,0,VALID,22.9988,VALID,79,VALID,0.520703,
2010-09-29, 00:20:04,VALID,999.11,VALID,0,VALID,91.7233,VALID,0,VALID,22.9598,VALID,79,VALID,0.330859,
2010-09-29, 00:21:04,VALID,999.104,VALID,0,VALID,91.6928,VALID,0,VALID,22.9615,VALID,79,VALID,0.34375,
2010-09-29, 00:22:04,VALID,999.113,VALID,0,VALID,91.6546,VALID,0,VALID,22.9208,VALID,79,VALID,0.382031,
2010-09-29, 00:23:04,VALID,999.073,VALID,0,VALID,91.6623,VALID,0,VALID,22.9225,VALID,78,VALID,0.45,
2010-09-29, 00:24:04,VALID,999.067,VALID,0,VALID,91.7462,VALID,0,VALID,22.8818,VALID,78,VALID,0.272656,
2010-09-29, 00:25:04,VALID,999.074,VALID,0,VALID,91.8072,VALID,0,VALID,22.8835,VALID,78,VALID,0.532422,
2010-09-29, 00:26:04,VALID,999.028,VALID,0,VALID,91.8759,VALID,0,VALID,22.8427,VALID,78,VALID,0.967188,
2010-09-29, 00:27:04,VALID,999.008,VALID,0,VALID,91.8988,VALID,0,VALID,22.8427,VALID,64,VALID,1.18672,
2010-09-29, 00:28:04,VALID,998.999,VALID,0,VALID,91.8148,VALID,0,VALID,22.8623,VALID,54,VALID,0.849219,
2010-09-29, 00:29:04,VALID,998.954,VALID,0,VALID,91.647,VALID,0,VALID,22.8232,VALID,54,VALID,0.833984,
2010-09-29, 00:30:04,VALID,998.91,VALID,0,VALID,91.6165,VALID,0,VALID,22.8232,VALID,54,VALID,1.08008,
2010-09-29, 00:31:04,VALID,998.884,VALID,0,VALID,91.708,VALID,0,VALID,22.8427,VALID,54,VALID,1.23516,
2010-09-29, 00:32:04,VALID,998.874,VALID,0,VALID,91.7462,VALID,0,VALID,22.8427,VALID,54,VALID,0.961719,
2010-09-29, 00:33:04,VALID,998.88,VALID,0,VALID,91.6317,VALID,0,VALID,22.864,VALID,55,VALID,0.419531,
2010-09-29, 00:34:04,VALID,998.906,VALID,0,VALID,91.502,VALID,0,VALID,22.8232,VALID,55,VALID,0.323438,
2010-09-29, 00:35:04,VALID,998.923,VALID,0,VALID,91.5173,VALID,0,VALID,22.8427,VALID,240,VALID,0.640625,
2010-09-29, 00:36:04,VALID,998.907,VALID,0,VALID,91.5326,VALID,0,VALID,22.8623,VALID,218,VALID,0.478906,
2010-09-29, 00:37:04,VALID,998.936,VALID,0,VALID,91.6241,VALID,0,VALID,22.8818,VALID,201,VALID,0.551953,
2010-09-29, 00:38:04,VALID,998.908,VALID,0,VALID,91.7309,VALID,0,VALID,22.9598,VALID,201,VALID,0.447266,
2010-09-29, 00:39:04,VALID,998.891,VALID,0,VALID,91.7385,VALID,0,VALID,23.0183,VALID,201,VALID,0.270312,
2010-09-29, 00:40:04,VALID,998.896,VALID,0,VALID,91.6317,VALID,0,VALID,23.0378,VALID,201,VALID,0.00742187,
2010-09-29, 00:41:04,VALID,998.918,VALID,0,VALID,91.502,VALID,0,VALID,23.0769,VALID,184,VALID,0.471875,
2010-09-29, 00:42:04,VALID,998.938,VALID,0,VALID,91.3876,VALID,0,VALID,23.0769,VALID,122,VALID,0.883984,
2010-09-29, 00:43:04,VALID,998.921,VALID,0,VALID,91.4334,VALID,0,VALID,23.1354,VALID,115,VALID,0.932813,
2010-09-29, 00:44:04,VALID,998.878,VALID,0,VALID,91.3723,VALID,0,VALID,23.1939,VALID,92,VALID,0.957812,
2010-09-29, 00:45:04,VALID,998.856,VALID,0,VALID,91.174,VALID,0,VALID,23.2524,VALID,75,VALID,1.01875,
2010-09-29, 00:46:04,VALID,998.864,VALID,0,VALID,90.9832,VALID,0,VALID,23.2702,VALID,65,VALID,0.895312,
2010-09-29, 00:47:04,VALID,998.845,VALID,0,VALID,90.7925,VALID,0,VALID,23.311,VALID,61,VALID,0.834766,
2010-09-29, 00:48:04,VALID,998.799,VALID,0,VALID,90.6475,VALID,0,VALID,23.3305,VALID,62,VALID,0.751172,
2010-09-29, 00:49:04,VALID,998.753,VALID,0,VALID,90.5102,VALID,0,VALID,23.35,VALID,62,VALID,0.727344,
2010-09-29, 00:50:04,VALID,998.749,VALID,0,VALID,90.4491,VALID,0,VALID,23.3305,VALID,55,VALID,0.947266,
2010-09-29, 00:51:04,VALID,998.733,VALID,0,VALID,90.3423,VALID,0,VALID,23.311,VALID,48,VALID,1.0957,
2010-09-29, 00:52:04,VALID,998.731,VALID,0,VALID,89.9227,VALID,0,VALID,23.2524,VALID,33,VALID,1.22461,
2010-09-29, 00:53:04,VALID,998.748,VALID,0,VALID,89.7091,VALID,0,VALID,23.1319,VALID,16,VALID,1.11836,
2010-09-29, 00:54:04,VALID,998.689,VALID,0,VALID,89.9074,VALID,0,VALID,23.0556,VALID,2,VALID,1.28359,
2010-09-29, 00:55:04,VALID,998.649,VALID,0,VALID,90.472,VALID,0,VALID,22.9971,VALID,356,VALID,1.53086,
2010-09-29, 00:56:04,VALID,998.727,VALID,0,VALID,90.9527,VALID,0.112286,VALID,22.9971,VALID,38,VALID,0.676172,
2010-09-29, 00:57:04,VALID,998.733,VALID,0,VALID,91.0977,VALID,0,VALID,22.9581,VALID,105,VALID,1.92109,
2010-09-29, 00:58:04,VALID,998.706,VALID,0,VALID,91.3342,VALID,0,VALID,22.9793,VALID,105,VALID,1.7043,
2010-09-29, 00:59:04,VALID,998.639,VALID,0,VALID,91.3189,VALID,0,VALID,22.9581,VALID,91,VALID,1.375,
2010-09-29, 01:00:04,VALID,998.673,VALID,0,VALID,91.3647,VALID,0,VALID,22.9581,VALID,143,VALID,1.09492,
2010-09-29, 01:01:04,VALID,998.674,VALID,0,VALID,91.38,VALID,0,VALID,22.9385,VALID,148,VALID,1.20117,
2010-09-29, 01:02:04,VALID,998.622,VALID,0,VALID,91.4563,VALID,0,VALID,22.9598,VALID,148,VALID,0.397266,
2010-09-29, 01:03:04,VALID,998.587,VALID,0,VALID,91.4563,VALID,0,VALID,22.9793,VALID,148,VALID,0.444922,
2010-09-29, 01:04:04,VALID,998.56,VALID,0,VALID,91.4028,VALID,0,VALID,22.9581,VALID,148,VALID,0.317187,
2010-09-29, 01:05:04,VALID,998.536,VALID,0,VALID,91.4105,VALID,0,VALID,22.9581,VALID,148,VALID,0,
2010-09-29, 01:06:04,VALID,998.506,VALID,0,VALID,91.3723,VALID,0,VALID,22.9581,VALID,148,VALID,0,
2010-09-29, 01:07:04,VALID,998.49,VALID,0,VALID,91.4181,VALID,0,VALID,22.9971,VALID,148,VALID,0,
2010-09-29, 01:08:04,VALID,998.458,VALID,0,VALID,91.4563,VALID,0,VALID,22.9988,VALID,148,VALID,0,
2010-09-29, 01:09:04,VALID,998.464,VALID,0,VALID,91.4639,VALID,0,VALID,22.9988,VALID,148,VALID,0,
2010-09-29, 01:10:04,VALID,998.472,VALID,0,VALID,91.441,VALID,0,VALID,22.9988,VALID,148,VALID,0.191797,
2010-09-29, 01:11:04,VALID,998.466,VALID,0,VALID,91.5249,VALID,0,VALID,23.0183,VALID,148,VALID,0.139844,
2010-09-29, 01:12:04,VALID,998.496,VALID,0,VALID,91.5478,VALID,0,VALID,23.0183,VALID,148,VALID,0.161719,
2010-09-29, 01:13:04,VALID,998.438,VALID,0,VALID,91.5326,VALID,0,VALID,23.0378,VALID,148,VALID,0.175391,
2010-09-29, 01:14:04,VALID,998.436,VALID,0,VALID,91.502,VALID,0,VALID,23.0378,VALID,148,VALID,0,
2010-09-29, 01:15:04,VALID,998.414,VALID,0,VALID,91.4181,VALID,0,VALID,23.0573,VALID,148,VALID,0,
2010-09-29, 01:16:04,VALID,998.403,VALID,0,VALID,91.2197,VALID,0,VALID,23.0573,VALID,148,VALID,0.266016,
2010-09-29, 01:17:04,VALID,998.378,VALID,0,VALID,90.968,VALID,0,VALID,23.0183,VALID,148,VALID,0.51875,
2010-09-29, 01:18:04,VALID,998.405,VALID,0,VALID,90.8917,VALID,0,VALID,22.9793,VALID,148,VALID,0,
2010-09-29, 01:19:04,VALID,998.411,VALID,0,VALID,90.8383,VALID,0,VALID,22.9403,VALID,148,VALID,0,
2010-09-29, 01:20:04,VALID,998.426,VALID,0,VALID,90.7925,VALID,0,VALID,22.9208,VALID,148,VALID,0.154297,
2010-09-29, 01:21:04,VALID,998.467,VALID,0,VALID,90.8764,VALID,0,VALID,22.8818,VALID,141,VALID,0.609766,
2010-09-29, 01:22:04,VALID,998.395,VALID,0,VALID,91.2655,VALID,0,VALID,22.9013,VALID,141,VALID,0.486328,
2010-09-29, 01:23:04,VALID,998.425,VALID,0,VALID,91.3876,VALID,0,VALID,22.9598,VALID,141,VALID,0.222266,
2010-09-29, 01:24:04,VALID,998.429,VALID,0,VALID,91.3189,VALID,0,VALID,22.9793,VALID,141,VALID,0.0640625,
2010-09-29, 01:25:04,VALID,998.427,VALID,0,VALID,91.1968,VALID,0,VALID,23.0006,VALID,141,VALID,0,
2010-09-29, 01:26:04,VALID,998.423,VALID,0,VALID,91.2045,VALID,0,VALID,23.0006,VALID,141,VALID,0.503125,
2010-09-29, 01:27:04,VALID,998.409,VALID,0,VALID,91.1816,VALID,0,VALID,23.0396,VALID,141,VALID,0.0488281,
2010-09-29, 01:28:04,VALID,998.372,VALID,0,VALID,91.1358,VALID,0,VALID,23.0378,VALID,141,VALID,0,
2010-09-29, 01:29:04,VALID,998.349,VALID,0,VALID,91.0214,VALID,0,VALID,23.0573,VALID,141,VALID,0.00273437,
2010-09-29, 01:30:04,VALID,998.354,VALID,0,VALID,91.0214,VALID,0,VALID,23.0378,VALID,141,VALID,0,
2010-09-29, 01:31:04,VALID,998.331,VALID,0,VALID,91.0137,VALID,0,VALID,23.0378,VALID,141,VALID,0.184375,
2010-09-29, 01:32:04,VALID,998.354,VALID,0,VALID,90.4949,VALID,0,VALID,22.9793,VALID,141,VALID,0.417578,
2010-09-29, 01:33:04,VALID,998.373,VALID,0,VALID,90.5254,VALID,0,VALID,22.9811,VALID,141,VALID,0.903516,
2010-09-29, 01:34:04,VALID,998.371,VALID,0,VALID,90.7543,VALID,0,VALID,22.9793,VALID,141,VALID,1.24453,
2010-09-29, 01:35:04,VALID,998.362,VALID,0,VALID,90.7009,VALID,0,VALID,23.0573,VALID,149,VALID,1.18828,
2010-09-29, 01:36:04,VALID,998.361,VALID,0,VALID,90.4186,VALID,0,VALID,23.0769,VALID,147,VALID,0.978906,
2010-09-29, 01:37:04,VALID,998.339,VALID,0,VALID,90.2431,VALID,0,VALID,23.0769,VALID,147,VALID,0.908203,
2010-09-29, 01:38:04,VALID,998.324,VALID,0,VALID,90.1974,VALID,0,VALID,23.0573,VALID,147,VALID,0.554297,
2010-09-29, 01:39:04,VALID,998.311,VALID,0,VALID,90.2431,VALID,0,VALID,23.0573,VALID,147,VALID,0.554297,
2010-09-29, 01:40:04,VALID,998.326,VALID,0,VALID,90.2126,VALID,0,VALID,23.0183,VALID,147,VALID,0.482422,
2010-09-29, 01:41:04,VALID,998.342,VALID,0,VALID,90.411,VALID,0,VALID,22.9988,VALID,147,VALID,0.624609,
2010-09-29, 01:42:04,VALID,998.322,VALID,0,VALID,90.6246,VALID,0,VALID,22.9988,VALID,161,VALID,0.738672,
2010-09-29, 01:43:04,VALID,998.306,VALID,0,VALID,90.8764,VALID,0,VALID,23.0378,VALID,161,VALID,0.460938,
2010-09-29, 01:44:04,VALID,998.257,VALID,0,VALID,91.0595,VALID,0,VALID,23.0981,VALID,164,VALID,0.689453,
2010-09-29, 01:45:04,VALID,998.271,VALID,0,VALID,91.0824,VALID,0,VALID,23.1159,VALID,171,VALID,0.544922,
2010-09-29, 01:46:04,VALID,998.231,VALID,0,VALID,90.9985,VALID,0,VALID,23.1354,VALID,171,VALID,0.396484,
2010-09-29, 01:47:04,VALID,998.224,VALID,0,VALID,90.7467,VALID,0,VALID,23.1371,VALID,171,VALID,0.218359,
2010-09-29, 01:48:04,VALID,998.198,VALID,0,VALID,90.4415,VALID,0,VALID,23.0769,VALID,171,VALID,0.00351562,
2010-09-29, 01:49:04,VALID,998.186,VALID,0,VALID,90.144,VALID,0,VALID,23.0396,VALID,71,VALID,0.832812,
2010-09-29, 01:50:04,VALID,998.183,VALID,0,VALID,89.5946,VALID,0,VALID,22.9225,VALID,5,VALID,0.615234,
2010-09-29, 01:51:04,VALID,998.22,VALID,0,VALID,89.5489,VALID,0,VALID,22.8055,VALID,5,VALID,0.258203,
2010-09-29, 01:52:04,VALID,998.224,VALID,0,VALID,89.8006,VALID,0,VALID,22.7062,VALID,5,VALID,0.400781,
2010-09-29, 01:53:04,VALID,998.194,VALID,0,VALID,90.1745,VALID,0,VALID,22.6494,VALID,5,VALID,0.421094,
2010-09-29, 01:54:04,VALID,998.19,VALID,0,VALID,90.472,VALID,0,VALID,22.5714,VALID,5,VALID,0.348437,
2010-09-29, 01:55:04,VALID,998.156,VALID,0,VALID,90.823,VALID,0,VALID,22.5111,VALID,5,VALID,0.416406,
2010-09-29, 01:56:04,VALID,998.154,VALID,0,VALID,91.2503,VALID,0,VALID,22.4916,VALID,5,VALID,0.792578,
2010-09-29, 01:57:04,VALID,998.172,VALID,0,VALID,91.502,VALID,0,VALID,22.4738,VALID,5,VALID,0.588672,
2010-09-29, 01:58:04,VALID,998.173,VALID,0,VALID,91.6165,VALID,0,VALID,22.4136,VALID,5,VALID,0.375781,
2010-09-29, 01:59:04,VALID,998.132,VALID,0,VALID,91.6775,VALID,0,VALID,22.3763,VALID,5,VALID,0.0601562,
2010-09-29, 02:00:04,VALID,998.14,VALID,0,VALID,91.7462,VALID,0,VALID,22.3356,VALID,5,VALID,0.297656,
2010-09-29, 02:01:04,VALID,998.106,VALID,0,VALID,91.8454,VALID,0,VALID,22.2966,VALID,5,VALID,0.303125,
2010-09-29, 02:02:04,VALID,998.102,VALID,0,VALID,92.0285,VALID,0,VALID,22.2966,VALID,5,VALID,0.248828,
2010-09-29, 02:03:04,VALID,998.079,VALID,0,VALID,92.2497,VALID,0,VALID,22.3356,VALID,5,VALID,0.475,
2010-09-29, 02:04:04,VALID,998.048,VALID,0,VALID,92.4176,VALID,0,VALID,22.3551,VALID,5,VALID,0.630469,
2010-09-29, 02:05:04,VALID,998.075,VALID,0,VALID,92.5626,VALID,0,VALID,22.3763,VALID,5,VALID,0.481641,
2010-09-29, 02:06:04,VALID,998.063,VALID,0,VALID,92.6541,VALID,0,VALID,22.3551,VALID,5,VALID,0.369531,
2010-09-29, 02:07:04,VALID,998.105,VALID,0,VALID,92.7228,VALID,0,VALID,22.3551,VALID,5,VALID,0.248437,
2010-09-29, 02:08:04,VALID,998.087,VALID,0,VALID,92.7762,VALID,0,VALID,22.3551,VALID,5,VALID,0.277734,
2010-09-29, 02:09:04,VALID,998.145,VALID,0,VALID,92.8143,VALID,0.112286,VALID,22.3746,VALID,5,VALID,0.101172,
2010-09-29, 02:10:04,VALID,998.126,VALID,0,VALID,92.8601,VALID,0,VALID,22.3746,VALID,5,VALID,0,
2010-09-29, 02:11:04,VALID,998.151,VALID,0,VALID,92.8906,VALID,0,VALID,22.3551,VALID,5,VALID,0,
2010-09-29, 02:12:04,VALID,998.14,VALID,0,VALID,92.8754,VALID,0,VALID,22.3161,VALID,5,VALID,0,
2010-09-29, 02:13:04,VALID,998.159,VALID,0,VALID,92.8906,VALID,0,VALID,22.2559,VALID,5,VALID,0,
2010-09-29, 02:14:04,VALID,998.147,VALID,0,VALID,92.9135,VALID,0,VALID,22.2576,VALID,5,VALID,0,
2010-09-29, 02:15:04,VALID,998.181,VALID,0,VALID,92.9517,VALID,0,VALID,22.2771,VALID,5,VALID,0,
2010-09-29, 02:16:04,VALID,998.197,VALID,0,VALID,92.9822,VALID,0,VALID,22.2576,VALID,5,VALID,0,
2010-09-29, 02:17:04,VALID,998.224,VALID,0,VALID,92.9974,VALID,0,VALID,22.2576,VALID,5,VALID,0,
2010-09-29, 02:18:04,VALID,998.22,VALID,0,VALID,93.0051,VALID,0,VALID,22.1974,VALID,5,VALID,0,
2010-09-29, 02:19:04,VALID,998.21,VALID,0,VALID,93.0203,VALID,0,VALID,22.1795,VALID,5,VALID,0.0460938,
2010-09-29, 02:20:04,VALID,998.242,VALID,0,VALID,93.028,VALID,0,VALID,22.1795,VALID,32,VALID,0.772656,
2010-09-29, 02:21:04,VALID,998.27,VALID,0,VALID,92.9898,VALID,0,VALID,22.0625,VALID,94,VALID,0.738281,
2010-09-29, 02:22:04,VALID,998.285,VALID,0,VALID,93.028,VALID,0,VALID,22.082,VALID,102,VALID,0.931641,
2010-09-29, 02:23:04,VALID,998.261,VALID,0,VALID,93.1119,VALID,0,VALID,22.199,VALID,97,VALID,0.951953,
2010-09-29, 02:24:04,VALID,998.237,VALID,0,VALID,93.0966,VALID,0,VALID,22.199,VALID,96,VALID,1.16445,
2010-09-29, 02:25:04,VALID,998.21,VALID,0,VALID,92.9974,VALID,0,VALID,22.2381,VALID,78,VALID,1.10195,
2010-09-29, 02:26:04,VALID,998.28,VALID,0,VALID,92.9059,VALID,0,VALID,22.2381,VALID,78,VALID,0.63125,
2010-09-29, 02:27:04,VALID,998.301,VALID,0,VALID,92.6999,VALID,0,VALID,22.199,VALID,125,VALID,0.753516,
2010-09-29, 02:28:04,VALID,998.298,VALID,0,VALID,92.5168,VALID,0,VALID,22.1795,VALID,125,VALID,0.617969,
2010-09-29, 02:29:04,VALID,998.281,VALID,0,VALID,92.3108,VALID,0,VALID,22.16,VALID,125,VALID,0.606641,
2010-09-29, 02:30:04,VALID,998.266,VALID,0,VALID,92.2497,VALID,0,VALID,22.16,VALID,125,VALID,0.535937,
2010-09-29, 02:31:04,VALID,998.25,VALID,0,VALID,92.1277,VALID,0,VALID,22.121,VALID,125,VALID,0.488672,
2010-09-29, 02:32:04,VALID,998.237,VALID,0,VALID,92.0056,VALID,0,VALID,22.082,VALID,125,VALID,0.523438,
2010-09-29, 02:33:04,VALID,998.269,VALID,0,VALID,91.9522,VALID,0,VALID,22.043,VALID,125,VALID,0.287109,
2010-09-29, 02:34:04,VALID,998.229,VALID,0,VALID,91.9751,VALID,0,VALID,22.0235,VALID,125,VALID,0.307813,
2010-09-29, 02:35:04,VALID,998.227,VALID,0,VALID,92.1353,VALID,0,VALID,22.0235,VALID,125,VALID,0.717969,
2010-09-29, 02:36:04,VALID,998.206,VALID,0,VALID,92.3031,VALID,0,VALID,22.0625,VALID,125,VALID,0.674219,
2010-09-29, 02:37:04,VALID,998.201,VALID,0,VALID,92.3718,VALID,0,VALID,22.082,VALID,125,VALID,0.582031,
2010-09-29, 02:38:04,VALID,998.18,VALID,0,VALID,92.4634,VALID,0,VALID,22.082,VALID,125,VALID,0.466797,
2010-09-29, 02:39:04,VALID,998.157,VALID,0,VALID,92.532,VALID,0,VALID,22.1015,VALID,125,VALID,0.453906,
2010-09-29, 02:40:04,VALID,998.124,VALID,0,VALID,92.6236,VALID,0,VALID,22.1617,VALID,125,VALID,0.373828,
2010-09-29, 02:41:04,VALID,998.087,VALID,0,VALID,92.6923,VALID,0,VALID,22.16,VALID,125,VALID,0.339844,
2010-09-29, 02:42:04,VALID,998.089,VALID,0,VALID,92.7762,VALID,0,VALID,22.1795,VALID,125,VALID,0.262891,
2010-09-29, 02:43:04,VALID,998.075,VALID,0,VALID,92.8067,VALID,0,VALID,22.16,VALID,125,VALID,0.349219,
2010-09-29, 02:44:04,VALID,998.052,VALID,0,VALID,92.8296,VALID,0,VALID,22.1795,VALID,125,VALID,0.538672,
2010-09-29, 02:45:04,VALID,998.057,VALID,0,VALID,92.883,VALID,0,VALID,22.1795,VALID,125,VALID,0.620703,
2010-09-29, 02:46:04,VALID,998.054,VALID,0,VALID,92.944,VALID,0,VALID,22.2186,VALID,101,VALID,0.647266,
2010-09-29, 02:47:04,VALID,998.067,VALID,0,VALID,92.9745,VALID,0,VALID,22.2592,VALID,101,VALID,0.528906,
2010-09-29, 02:48:04,VALID,998.07,VALID,0,VALID,92.9593,VALID,0,VALID,22.1795,VALID,101,VALID,0.253516,
2010-09-29, 02:49:04,VALID,998.034,VALID,0,VALID,92.9288,VALID,0,VALID,22.16,VALID,348,VALID,0.611719,
2010-09-29, 02:50:04,VALID,998.034,VALID,0,VALID,92.9364,VALID,0,VALID,22.1795,VALID,301,VALID,0.837109,
2010-09-29, 02:51:04,VALID,998.052,VALID,0,VALID,92.9593,VALID,0,VALID,22.16,VALID,301,VALID,0.684375,
2010-09-29, 02:52:04,VALID,998.048,VALID,0,VALID,92.9593,VALID,0,VALID,22.1795,VALID,301,VALID,0.347266,
2010-09-29, 02:53:04,VALID,998.058,VALID,0,VALID,92.9745,VALID,0,VALID,22.199,VALID,301,VALID,0,
2010-09-29, 02:54:04,VALID,998.039,VALID,0,VALID,92.9898,VALID,0,VALID,22.1795,VALID,301,VALID,0,
2010-09-29, 02:55:04,VALID,998.079,VALID,0,VALID,92.9822,VALID,0,VALID,22.1405,VALID,301,VALID,0,
2010-09-29, 02:56:04,VALID,998.109,VALID,0,VALID,93.0051,VALID,0,VALID,22.16,VALID,301,VALID,0,
2010-09-29, 02:57:05,VALID,998.127,VALID,0,VALID,92.9593,VALID,0,VALID,22.1032,VALID,301,VALID,0.122656,
2010-09-29, 02:58:05,VALID,998.141,VALID,0,VALID,92.9745,VALID,0,VALID,22.121,VALID,301,VALID,0,
2010-09-29, 02:59:05,VALID,998.154,VALID,0,VALID,92.9745,VALID,0,VALID,22.121,VALID,301,VALID,0,
2010-09-29, 03:00:05,VALID,998.17,VALID,0,VALID,92.9898,VALID,0,VALID,22.121,VALID,301,VALID,0,
2010-09-29, 03:01:05,VALID,998.174,VALID,0,VALID,93.0356,VALID,0,VALID,22.121,VALID,301,VALID,0,
2010-09-29, 03:02:05,VALID,998.176,VALID,0,VALID,93.0661,VALID,0,VALID,22.1015,VALID,301,VALID,0,
2010-09-29, 03:03:05,VALID,998.202,VALID,0,VALID,93.0814,VALID,0,VALID,22.121,VALID,301,VALID,0.375391,
2010-09-29, 03:04:05,VALID,998.227,VALID,0,VALID,93.089,VALID,0,VALID,22.16,VALID,301,VALID,0.398047,
2010-09-29, 03:05:05,VALID,998.226,VALID,0,VALID,93.15,VALID,0,VALID,22.1795,VALID,301,VALID,0.490625,
2010-09-29, 03:06:05,VALID,998.273,VALID,0,VALID,93.1577,VALID,0,VALID,22.1795,VALID,301,VALID,0.520312,
2010-09-29, 03:07:05,VALID,998.266,VALID,0,VALID,93.1577,VALID,0,VALID,22.2397,VALID,301,VALID,0.201172,
2010-09-29, 03:08:05,VALID,998.264,VALID,0,VALID,93.2034,VALID,0,VALID,22.2381,VALID,301,VALID,0.248047,
2010-09-29, 03:09:05,VALID,998.281,VALID,0,VALID,93.1805,VALID,0,VALID,22.2381,VALID,301,VALID,0.173047,
2010-09-29, 03:10:05,VALID,998.287,VALID,0,VALID,93.2034,VALID,0,VALID,22.199,VALID,301,VALID,0.428516,
2010-09-29, 03:11:05,VALID,998.296,VALID,0,VALID,93.1577,VALID,0,VALID,22.1405,VALID,301,VALID,0.536328,
2010-09-29, 03:12:05,VALID,998.267,VALID,0,VALID,93.1958,VALID,0,VALID,22.16,VALID,301,VALID,0.614844,
2010-09-29, 03:13:05,VALID,998.261,VALID,0,VALID,93.2187,VALID,0,VALID,22.2007,VALID,54,VALID,0.905859,
2010-09-29, 03:14:05,VALID,998.232,VALID,0,VALID,93.2111,VALID,0,VALID,22.1795,VALID,54,VALID,0.937109,
2010-09-29, 03:15:05,VALID,998.226,VALID,0,VALID,93.2111,VALID,0,VALID,22.2186,VALID,54,VALID,0.990234,
2010-09-29, 03:16:05,VALID,998.241,VALID,0,VALID,93.1195,VALID,0,VALID,22.16,VALID,54,VALID,1.09453,
2010-09-29, 03:17:05,VALID,998.233,VALID,0,VALID,92.9898,VALID,0,VALID,22.082,VALID,54,VALID,1.12148,
2010-09-29, 03:18:05,VALID,998.226,VALID,0,VALID,92.9135,VALID,0,VALID,22.1032,VALID,49,VALID,1.14102,
2010-09-29, 03:19:05,VALID,998.238,VALID,0,VALID,92.7685,VALID,0,VALID,22.043,VALID,49,VALID,0.945313,
2010-09-29, 03:20:05,VALID,998.241,VALID,0,VALID,92.5702,VALID,0,VALID,21.9845,VALID,49,VALID,0.891406,
2010-09-29, 03:21:05,VALID,998.229,VALID,0,VALID,92.3794,VALID,0,VALID,21.9455,VALID,49,VALID,0.795313,
2010-09-29, 03:22:05,VALID,998.202,VALID,0,VALID,92.1963,VALID,0,VALID,21.9082,VALID,49,VALID,0.553516,
2010-09-29, 03:23:05,VALID,998.216,VALID,0,VALID,92.0437,VALID,0,VALID,21.809,VALID,49,VALID,0.0984375,
2010-09-29, 03:24:05,VALID,998.233,VALID,0,VALID,92.0514,VALID,0,VALID,21.809,VALID,335,VALID,0.745703,
2010-09-29, 03:25:05,VALID,998.22,VALID,0,VALID,92.2116,VALID,0,VALID,21.8692,VALID,326,VALID,0.474219,
2010-09-29, 03:26:05,VALID,998.21,VALID,0,VALID,92.3718,VALID,0,VALID,21.8692,VALID,326,VALID,0.0691406,
2010-09-29, 03:27:05,VALID,998.236,VALID,0,VALID,92.5015,VALID,0,VALID,21.887,VALID,303,VALID,0.242578,
2010-09-29, 03:28:05,VALID,998.263,VALID,0,VALID,92.6312,VALID,0,VALID,21.9455,VALID,265,VALID,0.582031,
2010-09-29, 03:29:05,VALID,998.286,VALID,0,VALID,92.7457,VALID,0,VALID,22.0235,VALID,244,VALID,0.535156,
2010-09-29, 03:30:05,VALID,998.259,VALID,0,VALID,92.822,VALID,0,VALID,22.1032,VALID,325,VALID,0.482031,
2010-09-29, 03:31:05,VALID,998.284,VALID,0,VALID,92.8372,VALID,0,VALID,22.082,VALID,307,VALID,0.578906,
2010-09-29, 03:32:05,VALID,998.263,VALID,0,VALID,92.8296,VALID,0,VALID,22.121,VALID,34,VALID,0.905078,
2010-09-29, 03:33:05,VALID,998.3,VALID,0,VALID,92.7762,VALID,0,VALID,22.121,VALID,70,VALID,0.842188,
2010-09-29, 03:34:05,VALID,998.278,VALID,0,VALID,92.677,VALID,0,VALID,22.16,VALID,47,VALID,0.65625,
2010-09-29, 03:35:05,VALID,998.304,VALID,0,VALID,92.5168,VALID,0,VALID,22.16,VALID,47,VALID,0.534766,
2010-09-29, 03:36:05,VALID,998.327,VALID,0,VALID,92.3566,VALID,0,VALID,22.16,VALID,47,VALID,0.285547,
2010-09-29, 03:37:05,VALID,998.337,VALID,0,VALID,92.1963,VALID,0,VALID,22.16,VALID,47,VALID,0.23125,
2010-09-29, 03:38:05,VALID,998.306,VALID,0,VALID,92.0132,VALID,0,VALID,22.1617,VALID,47,VALID,0,
2010-09-29, 03:39:05,VALID,998.285,VALID,0,VALID,91.9293,VALID,0,VALID,22.1405,VALID,47,VALID,0,
2010-09-29, 03:40:05,VALID,998.273,VALID,0,VALID,91.8454,VALID,0,VALID,22.1015,VALID,47,VALID,0,
2010-09-29, 03:41:05,VALID,998.248,VALID,0,VALID,91.8225,VALID,0,VALID,22.082,VALID,47,VALID,0.433594,
2010-09-29, 03:42:05,VALID,998.282,VALID,0,VALID,91.7843,VALID,0,VALID,22.0642,VALID,47,VALID,0.470703,
2010-09-29, 03:43:05,VALID,998.271,VALID,0,VALID,91.792,VALID,0,VALID,22.004,VALID,47,VALID,0.593359,
2010-09-29, 03:44:05,VALID,998.307,VALID,0,VALID,91.8683,VALID,0,VALID,22.0057,VALID,27,VALID,0.600781,
2010-09-29, 03:45:05,VALID,998.321,VALID,0,VALID,91.9522,VALID,0,VALID,21.965,VALID,27,VALID,0.651172,
2010-09-29, 03:46:05,VALID,998.369,VALID,0,VALID,92.0743,VALID,0,VALID,21.9455,VALID,27,VALID,0.596094,
2010-09-29, 03:47:05,VALID,998.384,VALID,0,VALID,92.1506,VALID,0,VALID,21.9455,VALID,27,VALID,0.396484,
2010-09-29, 03:48:05,VALID,998.395,VALID,0,VALID,92.2192,VALID,0,VALID,21.926,VALID,27,VALID,0.339453,